Regional Weather Roundup
Issued by NWS

Home | Current Version | Previous Version | Graphics & Text | Print | Product List | Glossary On
Versions: 1 2 3 4 5 6 7 8 9 10 11 12 13 14 15 16 17 18 19 20 21 22 23 24 25 26 27 28 29 30 31 32 33 34 35 36 37 38 39 40 41 42 43 44 45 46 47 48 49 50
737
ASUS45 KBOI 241710
RWRID

IDAHO REGIONAL WEATHER ROUNDUP
NATIONAL WEATHER SERVICE BOISE ID
1100 AM MDT WED MAY 24 2017

NOTE: "FAIR" INDICATES FEW OR NO CLOUDS BELOW 12000 FEET
WITH NO SIGNIFICANT WEATHER AND/OR OBSTRUCTIONS TO VISIBILITY

IDZ012-014-241800-
SOUTHWEST IDAHO


CITY           SKY/WX    TMP DP  RH WIND       PRES   REMARKS
BOISE          FAIR      67  32  27 NW22G28   29.78F
CALDWELL       NOT AVBL
MOUNTAIN HOME  FAIR      70  34  26 NW28G36   29.77F
$$

IDZ016-017-241800-
SOUTHCENTRAL IDAHO


CITY           SKY/WX    TMP DP  RH WIND       PRES   REMARKS
BURLEY         FAIR      70  43  37 W20G28    29.77F
JEROME         FAIR      69  38  32 W25G32    29.79
TWIN FALLS     FAIR      69  42  37 W23       29.80
$$

IDZ019>023-241800-
SOUTHEAST IDAHO


CITY           SKY/WX    TMP DP  RH WIND       PRES   REMARKS
IDAHO FALLS    FAIR      72  45  37 S32G40    29.66F
POCATELLO      FAIR      73  44  35 SW33G45   29.75S
REXBURG        FAIR      68  43  40 SW25G37   29.65F
$$

IDZ006-010-011-018-031-032-241800-
CENTRAL IDAHO MOUNTAINS


CITY           SKY/WX    TMP DP  RH WIND       PRES   REMARKS
MCCALL         FAIR      57  12  17 W12G21    29.78F
HAILEY         SUNNY     70  27  19 SW21G28   29.75F
STANLEY          N/A     61  14  16 VRB7G20   29.79F
SALMON         PTSUNNY   70  36  28 N10       29.56S
CHALLIS        FAIR      69  18  14 W21G28    29.65F
$$

IDZ002-004-006-007-026-241800-
NORTHERN IDAHO


CITY           SKY/WX    TMP DP  RH WIND       PRES   REMARKS
LEWISTON       FAIR      59  28  30 NW18G29   29.84S
LOWELL           N/A     62  33  33 VRB5      29.79F
COEUR D`ALENE  PTSUNNY   55  27  34 W17       29.77R
MULLAN PASS    FAIR      37  17  44 W8G25     29.71R WCI  31
$$




USA.gov is the U.S. government's official web portal to all federal, state and local government web resources and services.